Regional Weather Roundup
Issued by NWS

Home | Current Version | Previous Version | Graphics & Text | Print | Product List | Glossary On
Versions: 1 2 3 4 5 6 7 8 9 10 11 12 13 14 15 16 17 18 19 20 21 22 23 24 25 26 27 28 29 30 31 32 33 34 35 36 37 38 39 40 41 42 43 44 45 46 47 48 49 50
019
ASUS45 KBOI 290410
RWRID

IDAHO REGIONAL WEATHER ROUNDUP
NATIONAL WEATHER SERVICE BOISE ID
1000 PM MDT FRI APR 28 2017

NOTE: "FAIR" INDICATES FEW OR NO CLOUDS BELOW 12000 FEET
WITH NO SIGNIFICANT WEATHER AND/OR OBSTRUCTIONS TO VISIBILITY

IDZ012-014-290500-
SOUTHWEST IDAHO


CITY           SKY/WX    TMP DP  RH WIND       PRES   REMARKS
BOISE          CLEAR     50  29  44 NW17      30.13R
CALDWELL       CLEAR     49  31  49 NW9       30.16R
MOUNTAIN HOME  CLEAR     48  29  49 NW17      30.11R
$$

IDZ016-017-290500-
SOUTHCENTRAL IDAHO


CITY           SKY/WX    TMP DP  RH WIND       PRES   REMARKS
BURLEY         PTCLDY    44  28  53 W12       30.06R
JEROME         CLEAR     44  29  55 SW14      30.07R
TWIN FALLS     CLEAR     42  29  59 W17       30.08R
$$

IDZ019>023-290500-
SOUTHEAST IDAHO


CITY           SKY/WX    TMP DP  RH WIND       PRES   REMARKS
IDAHO FALLS    CLEAR     38  29  70 N9        30.07R WCI  31
POCATELLO      CLOUDY    38  31  76 W6        30.06R WCI  33
REXBURG        CLOUDY    40  28  62 NE8       30.08R WCI  34
$$

IDZ006-010-011-018-031-032-290500-
CENTRAL IDAHO MOUNTAINS


CITY           SKY/WX    TMP DP  RH WIND       PRES   REMARKS
MCCALL         CLEAR     38  24  57 N12       30.17R WCI  30
HAILEY         PTCLDY    39  19  45 W7        30.08R WCI  34
STANLEY          N/A     34  19  54 N3        30.13R
SALMON         PTCLDY    45  25  45 E3        30.13R
CHALLIS        PTCLDY    35  21  56 N6        30.12R WCI  30
$$

IDZ002-004-006-007-026-290500-
NORTHERN IDAHO


CITY           SKY/WX    TMP DP  RH WIND       PRES   REMARKS
LEWISTON       CLEAR     50  40  68 E9        30.22R
LOWELL           N/A     41  38  89 CALM      30.31R
COEUR D`ALENE  MOCLDY    45  40  82 S8        30.19R
MULLAN PASS    SNOW      30  30 100 NW8G26    30.18R VSB 1/4 WCI  22
$$




USA.gov is the U.S. government's official web portal to all federal, state and local government web resources and services.